Weather in Toktogulskoye vodokhranilishche

Kyrgyzstan     41°44′31″N   72°51′08″E
temp.,
°C
wind,
m/s
gust,
m/s
humid.,
%
clouds,
%
prec.,
mm/h
press.,
hPa
HPBL,
m
12 august, fri
fri1200:00+20w225277 0.1 101120
03:00+19wnw11520 0.0 101013
06:00+18wnw11540 0.0 101112
09:00+20nne11490 0.0 1012243
12:00+21ese22430 0.0 1010730
15:00+23ese23390 0.0 1007908
18:00+24sse21361 0.0 1006687
21:00+23wnw22422 0.0 100724
13 august, sat
sat1300:00+21w11450 0.0 100814
03:00+19wnw11480 0.0 100911
06:00+18w22480 0.0 101011
09:00+21ne11460 0.0 1011233
12:00+22ese21370 0.0 1009560
15:00+25ese22310 0.0 1006824
18:00+26se21290 0.0 1005664
21:00+24w12370 0.0 100618
14 august, sun
sun1400:00+21wnw11440 0.0 100714
03:00+20wnw11470 0.0 100712
06:00+19wnw12470 0.0 100812
09:00+21ne11430 0.0 1009203
12:00+23ese21340 0.0 1007459
15:00+26se22290 0.0 1004614
18:00+28se21260 0.0 1001443
21:00+25w22310 0.0 100319
15 august, mon
mon1500:00+23wsw22340 0.0 100414
03:00+21w11390 0.0 100511
06:00+21w22400 0.0 100612
09:00+23ne11400 0.0 1006209
12:00+25ese22320 0.0 1004569
15:00+26se23300 0.0 1002897
18:00+29ssw44230 0.0 10001721
21:00+25w23360 0.0 100329
16 august, tue
tue1600:00+23wsw11360 0.0 100413
03:00+21wnw114012 0.0 100411
06:00+21nw114057 0.0 100512
09:00+23ne11402 0.0 1006256
12:00+24e23321 0.0 1004874
15:00+31sw57190 0.0 10002202
18:00+30nnw682151 0.0 1000966
21:00+23wsw44420 0.0 100534